| time (UTC) | temp F | wind direction | speed knots | gust knots | rain 1hr in | rain 24hr in | rain mn in | humidity % | barometer mb |
| 20260505073036 | 64 | 205 | 1.7 | 8.7 | 0.00 | 0.00 | 0.00 | 65 | 1010.7 |
| 20260505071529 | 62 | 325 | 1.7 | 5.2 | 0.00 | 0.00 | 0.00 | 69 | 1010.6 |
| 20260505070028 | 58 | 217 | 2.6 | 7.8 | 0.00 | 0.00 | 0.00 | 77 | 1010.7 |
| 20260505064510 | 55 | 323 | 0.0 | 3.5 | 0.00 | 0.00 | 0.00 | 87 | 1010.7 |
| 20260505063009 | 54 | 36 | 0.9 | 2.6 | 0.00 | 0.00 | 0.00 | 89 | 1010.8 |
| 20260505061510 | 53 | 44 | 0.0 | 3.5 | 0.00 | 0.00 | 0.00 | 91 | 1010.8 |
| 20260505060033 | 53 | 25 | 0.9 | 2.6 | 0.00 | 0.00 | 0.00 | 91 | 1011.0 |
| 20260505054534 | 53 | 67 | 0.0 | 2.6 | 0.00 | 0.00 | 0.00 | 91 | 1011.0 |
| 20260505053003 | 53 | 84 | 0.0 | 1.7 | 0.00 | 0.00 | 0.00 | 91 | 1010.9 |
| 20260505051510 | 53 | 85 | 0.0 | 0.0 | 0.00 | 0.00 | 0.00 | 91 | 1010.9 |
| 20260505041507 | 54 | 227 | 0.0 | 1.7 | 0.00 | 0.00 | 0.00 | 88 | 1010.2 |
| 20260505040013 | 55 | 227 | 0.0 | 0.9 | 0.00 | 0.00 | 0.00 | 87 | 1010.1 |
| 20260505034516 | 56 | 227 | 0.0 | 0.9 | 0.00 | 0.00 | 0.00 | 87 | 1010.0 |
| 20260505033022 | 56 | 227 | 0.0 | 0.9 | 0.00 | 0.00 | 0.00 | 86 | 1009.9 |
| 20260505031525 | 57 | 227 | 0.0 | 0.9 | 0.00 | 0.00 | 0.00 | 85 | 1009.8 |
| 20260505030008 | 58 | 227 | 0.0 | 1.7 | 0.00 | 0.00 | 0.00 | 84 | 1009.8 |
| 20260505024514 | 59 | 227 | 0.0 | 1.7 | 0.00 | 0.00 | 0.00 | 82 | 1009.7 |
| 20260505023022 | 60 | 227 | 0.0 | 0.9 | 0.00 | 0.00 | 0.00 | 79 | 1009.8 |
| 20260505021522 | 61 | 227 | 0.0 | 0.9 | 0.00 | 0.00 | 0.00 | 76 | 1009.7 |
| 20260505020026 | 62 | 227 | 0.0 | 0.9 | 0.00 | 0.00 | 0.00 | 75 | 1009.6 |
| 20260505014512 | 64 | 227 | 0.0 | 0.9 | 0.00 | 0.00 | 0.00 | 72 | 1009.5 |
| 20260505013017 | 65 | 227 | 0.0 | 0.9 | 0.00 | 0.00 | 0.00 | 69 | 1009.3 |
| 20260505011523 | 67 | 227 | 0.0 | 0.9 | 0.00 | 0.00 | 0.00 | 66 | 1009.3 |
| 20260505010026 | 69 | 227 | 0.0 | 0.9 | 0.00 | 0.00 | 0.00 | 62 | 1009.4 |
| 20260505004523 | 71 | 227 | 0.0 | 0.9 | 0.00 | 0.00 | 0.00 | 59 | 1009.2 |
| 20260505003016 | 73 | 227 | 0.0 | 0.9 | 0.00 | 0.00 | 0.00 | 55 | 1009.2 |
| 20260505001522 | 74 | 266 | 0.9 | 2.6 | 0.00 | 0.00 | 0.00 | 50 | 1009.1 |
| 20260505000026 | 76 | 278 | 0.9 | 5.2 | 0.00 | 0.00 | 0.00 | 48 | 1009.2 |
| 20260504234507 | 76 | 231 | 0.0 | 4.3 | 0.00 | 0.00 | 0.00 | 45 | 1009.2 |
| 20260504233012 | 77 | 289 | 2.6 | 7.8 | 0.00 | 0.00 | 0.00 | 43 | 1009.3 |
| 20260504231532 | 78 | 277 | 4.3 | 10.4 | 0.00 | 0.00 | 0.00 | 42 | 1009.3 |
| 20260504230024 | 78 | 204 | 1.7 | 10.4 | 0.00 | 0.00 | 0.00 | 43 | 1009.2 |
| 20260504224523 | 78 | 267 | 2.6 | 9.6 | 0.00 | 0.00 | 0.00 | 41 | 1009.2 |
| 20260504223008 | 78 | 205 | 3.5 | 10.4 | 0.00 | 0.00 | 0.00 | 42 | 1009.4 |
| 20260504221517 | 78 | 296 | 2.6 | 10.4 | 0.00 | 0.00 | 0.00 | 44 | 1009.5 |
| 20260504220022 | 78 | 285 | 4.3 | 12.2 | 0.00 | 0.00 | 0.00 | 43 | 1009.6 |
| 20260504214534 | 78 | 206 | 2.6 | 12.2 | 0.00 | 0.00 | 0.00 | 43 | 1009.7 |
| 20260504213029 | 78 | 208 | 3.5 | 15.6 | 0.00 | 0.00 | 0.00 | 43 | 1009.4 |
| 20260504211515 | 78 | 303 | 1.7 | 9.6 | 0.00 | 0.00 | 0.00 | 45 | 1009.7 |
| 20260504210017 | 78 | 287 | 4.3 | 10.4 | 0.00 | 0.00 | 0.00 | 47 | 1009.8 |
| 20260504204550 | 77 | 186 | 1.7 | 12.2 | 0.00 | 0.00 | 0.00 | 48 | 1009.9 |
| 20260504203029 | 76 | 203 | 4.3 | 10.4 | 0.00 | 0.00 | 0.00 | 49 | 1010.2 |
| 20260504201526 | 74 | 204 | 2.6 | 9.6 | 0.00 | 0.00 | 0.00 | 53 | 1010.4 |
| 20260504200018 | 74 | 241 | 4.3 | 13.0 | 0.00 | 0.00 | 0.00 | 53 | 1010.7 |
| 20260504194521 | 73 | 275 | 4.3 | 15.6 | 0.00 | 0.00 | 0.00 | 52 | 1010.9 |
| 20260504193026 | 72 | 262 | 4.3 | 11.3 | 0.00 | 0.00 | 0.00 | 54 | 1011.1 |
| 20260504191524 | 71 | 235 | 3.5 | 13.0 | 0.00 | 0.00 | 0.00 | 55 | 1011.4 |
| 20260504190030 | 70 | 215 | 5.2 | 17.4 | 0.00 | 0.00 | 0.00 | 55 | 1011.5 |
| 20260504184518 | 69 | 257 | 4.3 | 13.9 | 0.00 | 0.00 | 0.00 | 58 | 1011.9 |
| 20260504183027 | 67 | 195 | 1.7 | 10.4 | 0.00 | 0.00 | 0.00 | 60 | 1012.5 |
| 20260504181523 | 69 | 257 | 6.1 | 17.4 | 0.00 | 0.00 | 0.00 | 53 | 1013.1 |
| 20260504180028 | 71 | 188 | 4.3 | 13.0 | 0.00 | 0.00 | 0.00 | 52 | 1012.3 |
| 20260504174514 | 71 | 175 | 5.2 | 15.6 | 0.00 | 0.00 | 0.00 | 51 | 1011.8 |
| 20260504173020 | 71 | 235 | 1.7 | 11.3 | 0.00 | 0.00 | 0.00 | 53 | 1011.7 |
| 20260504171537 | 69 | 246 | 2.6 | 9.6 | 0.00 | 0.00 | 0.00 | 56 | 1011.9 |
| 20260504081529 | 44 | 70 | 0.0 | 0.0 | 0.00 | 0.00 | 0.00 | 90 | 1014.7 |